[[{"header":{"parameterUnit":"m.s-1","parameterCategory":1,"la1":30.2991,"la2":30.254,"lo1":-89.0895,"lo2":-89.0444,"dy":0.0017,"dx":0.0017,"nx":28,"ny":28,"refTime":"2024-07-23T03:00:00:Z","depth":0,"parameterNumber":2,"parameterNumberName":"U-component_of_WINDS"},"data":[0,0,0,0,0,0,0,0,0,0,0,0,0,0,0,0,0,0,0,0,0,0,0,0,0,0,0,0,0,0,0,0,0,0,0,0,0,0,0,0,0,0,0,0,0,0,0,0,0,0,0,0,0,0,0,0,0,0,0.6979,0.6982,0,0.7207,0.721,0.7212,0.7299,0.7298,0.7298,0.7297,0.7539,0.7546,0.7553,0,0,0,0,0,0,0,0,0,0,0,0,0,0.6628,0.6634,0.6979,0.6982,0.6985,0.7207,0.721,0.7213,0.7299,0.7298,0.7298,0.7297,0.7537,0.7545,0.7553,0,0,0,0,0,0,0,0,0,0,0,0,0,0.6811,0.6636,0.6979,0.7054,0.7063,0.7206,0.721,0.7214,0.7299,0.7298,0.7297,0.7296,0.7534,0.7544,0.7555,0.7641,0,0,0.7587,0.7592,0,0,0,0,0,0,0,0,0.68,0.6824,0.704,0.7049,0.706,0.7223,0.7175,0.7357,0.73,0.721,0.7297,0.7296,0.7435,0.7454,0.7499,0.7653,0.7663,0.7588,0.7594,0.7599,0.7602,0,0,0,0,0,0,0,0.6788,0.6815,0.707,0.7043,0.7055,0.708,0.7105,0.721,0.7326,0.7218,0.7225,0.725,0.7441,0.7489,0.7506,0.7667,0.7588,0.7597,0.7604,0.7608,0.7906,0.7908,0,0,0,0,0,0,0.6761,0.6803,0.7062,0.7076,0.6925,0.7087,0.7115,0.7172,0.7325,0.7347,0.7251,0.7253,0.7471,0.7493,0.7514,0.7628,0.7599,0.7609,0.7615,0.7905,0.7907,0.7908,0,0,0,0,0,0,0.6753,0.6783,0.7053,0.6942,0.6978,0.7094,0.7158,0.7177,0.7225,0.735,0.7372,0.7278,0.7471,0.75,0.7609,0.7637,0.7614,0.7623,0.7903,0.7905,0.7907,0.7854,0,0,0,0,0,0,0.6743,0.678,0.6812,0.6942,0.6983,0.7141,0.716,0.7182,0.7243,0.7248,0.7381,0.7403,0.7473,0.7593,0.762,0.7652,0.7632,0.7901,0.7904,0.7907,0.7853,0.7854,0.7854,0,0,0,0,0,0.673,0.6789,0.6813,0.6843,0.7025,0.7142,0.7166,0.7243,0.7244,0.7279,0.7359,0.7398,0.763,0.7603,0.7634,0.767,0.7899,0.7903,0.7906,0.7853,0.7854,0.7854,0,0,0,0,0,0,0.6661,0.6807,0.6835,0.6937,0.7026,0.7156,0.7202,0.7241,0.7334,0.7335,0.743,0.7459,0.7562,0.7627,0.7595,0.7764,0.7768,0.7778,0.7717,0.7718,0.7719,0.7701,0.7641,0,0,0,0,0,0.6657,0.6737,0.6862,0.694,0.6983,0.7084,0.7138,0.719,0.7287,0.7326,0.7415,0.751,0.7605,0.7665,0.7759,0.7864,0.7896,0.7904,0.7904,0.7904,0.7911,0.7974,0.798,0.792,0.792,0.792,0,0,0.6651,0.6741,0.6786,0.6928,0.7003,0.7087,0.7116,0.7203,0.7267,0.7341,0.7449,0.7517,0.7631,0.7738,0.7791,0.7796,0.7935,0.7908,0.7907,0.7915,0.7978,0.7984,0.7989,0.7922,0.7922,0.7921,0,0,0.6683,0.6757,0.6831,0.6906,0.7019,0.7086,0.7104,0.7229,0.7277,0.7386,0.7444,0.7524,0.7684,0.7763,0.7824,0.7888,0.7928,0.7916,0.7918,0.7978,0.7983,0.7988,0.8013,0.802,0.7923,0.7923,0.7923,0,0.6661,0.6787,0.6865,0.6949,0.7012,0.708,0.7158,0.7228,0.7366,0.7409,0.7413,0.7617,0.7698,0.7826,0.7842,0.7889,0.7915,0.7901,0.7975,0.7981,0.7987,0.8012,0.802,0.7921,0.7921,0.7921,0.7922,0,0.6756,0.6843,0.689,0.7019,0.7087,0.7168,0.7262,0.7322,0.7368,0.7436,0.755,0.7649,0.7765,0.78,0.7847,0.7936,0.7936,0.7956,0.7963,0.7989,0.8014,0.8024,0.7918,0.7919,0.7919,0.792,0,0,0.675,0.6922,0.6938,0.6999,0.7129,0.72,0.7285,0.7396,0.7447,0.7541,0.7617,0.7752,0.7772,0.7841,0.7899,0.7951,0.7998,0.7966,0.797,0.7969,0.8106,0.809,0.8099,0.8025,0.8028,0.8029,0.8097,0,0.68,0.6951,0.7026,0.7147,0.7229,0.7297,0.7372,0.7462,0.7529,0.7612,0.7687,0.7781,0.78,0.7842,0.7897,0.798,0.8027,0.7976,0.81,0.8104,0.807,0.8112,0.8096,0.8154,0.8107,0.8109,0.811,0,0.6877,0.6969,0.7097,0.7219,0.7257,0.7322,0.7432,0.7509,0.7614,0.7659,0.7737,0.7793,0.7889,0.7888,0.8024,0.7988,0.8044,0.8093,0.8097,0.8112,0.8108,0.813,0.8174,0.8183,0.8126,0.8124,0.8123,0,0.6861,0.7017,0.7114,0.7164,0.7309,0.7354,0.7417,0.7521,0.7584,0.7681,0.7723,0.7831,0.789,0.7974,0.8058,0.8049,0.8187,0.8193,0.823,0.8228,0.8257,0.8254,0.8312,0.8291,0.829,0.829,0.829,0,0.6909,0.6986,0.7109,0.7169,0.7258,0.7344,0.7431,0.75,0.7592,0.767,0.7736,0.7808,0.7915,0.8001,0.8069,0.8173,0.8199,0.8241,0.8258,0.8235,0.823,0.8273,0.8272,0.8293,0.8292,0.8292,0.8291,0,0.6906,0.6991,0.7102,0.723,0.7265,0.7325,0.7436,0.7499,0.7569,0.7667,0.7695,0.7807,0.7912,0.8005,0.8145,0.8191,0.8298,0.8318,0.8261,0.8271,0.8303,0.8299,0.8392,0.841,0.8375,0.8375,0.8375,0,0.6931,0.6991,0.7125,0.718,0.7242,0.733,0.7394,0.7483,0.7548,0.7673,0.7722,0.7832,0.7924,0.809,0.8187,0.8295,0.832,0.8345,0.8337,0.8313,0.8322,0.8318,0.8325,0.8345,0.8345,0.8344,0.8344,0,0.6967,0.7007,0.7095,0.7199,0.7273,0.736,0.7449,0.7491,0.7598,0.7668,0.7775,0.7847,0.7989,0.8099,0.8218,0.8288,0.8335,0.8346,0.8361,0.8339,0.8304,0.8325,0.8262,0.8344,0.8344,0.8344,0.8344,0.8344,0.6981,0.7038,0.7141,0.7238,0.7314,0.7396,0.7462,0.754,0.763,0.7751,0.7799,0.7909,0.8017,0.8182,0.8251,0.8341,0.835,0.837,0.8376,0.838,0.8377,0.8288,0.8363,0.8364,0.8364,0.8364,0.8364,0,0.7021,0.7091,0.7179,0.7301,0.7378,0.7413,0.7514,0.7578,0.7672,0.7767,0.7856,0.7982,0.8089,0.8193,0.8307,0.8359,0.8384,0.8386,0.8384,0.84,0.8362,0.8339,0.8364,0.8364,0.8364,0.8364,0.8364,0.8364,0.7052,0.7151,0.7203,0.7342,0.7413,0.7519,0.7574,0.7652,0.7728,0.7863,0.7951,0.8018,0.8118,0.824,0.8341,0.8369,0.8409,0.8405,0.844,0.8403,0.8402,0.8401,0.8379,0.8413,0.8413,0.847,0.8471,0.8471]},{"header":{"parameterUnit":"m.s-1","parameterCategory":1,"la1":30.2991,"la2":30.254,"lo1":-89.0895,"lo2":-89.0444,"dy":0.0017,"dx":0.0017,"nx":28,"ny":28,"refTime":"2024-07-23T03:00:00:Z","depth":0,"parameterNumber":3,"parameterNumberName":"V-component_of_WINDS"},"data":[0,0,0,0,0,0,0,0,0,0,0,0,0,0,0,0,0,0,0,0,0,0,0,0,0,0,0,0,0,0,0,0,0,0,0,0,0,0,0,0,0,0,0,0,0,0,0,0,0,0,0,0,0,0,0,0,0,0,-2.1178,-2.1179,0,-2.1258,-2.1259,-2.126,-2.1318,-2.1319,-2.1319,-2.132,-2.1397,-2.1399,-2.1401,0,0,0,0,0,0,0,0,0,0,0,0,0,-2.1069,-2.1071,-2.1178,-2.1179,-2.118,-2.1258,-2.1259,-2.126,-2.1318,-2.1319,-2.1319,-2.132,-2.1397,-2.1399,-2.1401,0,0,0,0,0,0,0,0,0,0,0,0,0,-2.1129,-2.1071,-2.1178,-2.1218,-2.1223,-2.1258,-2.1259,-2.126,-2.1318,-2.1319,-2.132,-2.132,-2.1396,-2.1399,-2.1401,-2.1401,0,0,-2.1408,-2.1409,0,0,0,0,0,0,0,0,-2.1126,-2.1133,-2.1211,-2.1216,-2.1221,-2.1279,-2.1249,-2.1307,-2.1318,-2.1282,-2.132,-2.1321,-2.1357,-2.1363,-2.1376,-2.1404,-2.1408,-2.1409,-2.141,-2.1411,-2.1412,0,0,0,0,0,0,0,-2.1122,-2.113,-2.121,-2.1212,-2.1218,-2.123,-2.124,-2.126,-2.1314,-2.1285,-2.1289,-2.1298,-2.136,-2.1374,-2.1378,-2.1409,-2.1408,-2.1411,-2.1412,-2.1413,-2.1436,-2.1436,0,0,0,0,0,0,-2.1112,-2.1126,-2.1207,-2.1212,-2.1174,-2.1232,-2.1242,-2.1259,-2.1314,-2.1323,-2.1298,-2.1301,-2.1369,-2.1375,-2.1381,-2.1382,-2.1411,-2.1413,-2.1415,-2.1437,-2.1436,-2.1435,0,0,0,0,0,0,-2.1109,-2.1118,-2.1204,-2.117,-2.1182,-2.1233,-2.1252,-2.1261,-2.1275,-2.1324,-2.1333,-2.1302,-2.137,-2.1378,-2.1395,-2.1385,-2.1414,-2.1417,-2.1438,-2.1437,-2.1436,-2.1385,0,0,0,0,0,0,-2.1106,-2.1117,-2.1119,-2.117,-2.1184,-2.1218,-2.1251,-2.1262,-2.1279,-2.1284,-2.133,-2.1339,-2.1371,-2.1391,-2.1397,-2.1389,-2.1418,-2.1439,-2.1438,-2.1436,-2.1387,-2.1382,-2.1377,0,0,0,0,0,-2.1102,-2.1102,-2.1119,-2.1129,-2.1188,-2.1217,-2.1225,-2.1263,-2.1278,-2.1279,-2.131,-2.1337,-2.1386,-2.1392,-2.14,-2.1392,-2.144,-2.1438,-2.1436,-2.139,-2.1383,-2.1377,0,0,0,0,0,0,-2.1048,-2.1109,-2.1129,-2.1146,-2.1176,-2.1227,-2.123,-2.1255,-2.1281,-2.1284,-2.133,-2.1339,-2.1351,-2.1374,-2.138,-2.1393,-2.1416,-2.1415,-2.1378,-2.1372,-2.1367,-2.136,-2.142,0,0,0,0,0,-2.1038,-2.1059,-2.111,-2.112,-2.1134,-2.1179,-2.1193,-2.122,-2.1253,-2.1265,-2.1298,-2.1327,-2.1348,-2.1361,-2.1384,-2.1391,-2.14,-2.1389,-2.1384,-2.138,-2.1378,-2.138,-2.1375,-2.1429,-2.1429,-2.1429,0,0,-2.1018,-2.1054,-2.1064,-2.111,-2.1137,-2.1154,-2.119,-2.1208,-2.1221,-2.1268,-2.1286,-2.131,-2.1345,-2.1356,-2.1362,-2.1375,-2.1365,-2.1377,-2.1373,-2.1375,-2.1378,-2.1372,-2.1368,-2.1428,-2.1428,-2.1429,0,0,-2.099,-2.1021,-2.1031,-2.1056,-2.1095,-2.1125,-2.1127,-2.1173,-2.1191,-2.121,-2.1245,-2.126,-2.1297,-2.1319,-2.1336,-2.1312,-2.1337,-2.1318,-2.1291,-2.1292,-2.1288,-2.1284,-2.1273,-2.1269,-2.1317,-2.1317,-2.1317,0,-2.096,-2.099,-2.1032,-2.1048,-2.1065,-2.1109,-2.1117,-2.1139,-2.1183,-2.1193,-2.1207,-2.1252,-2.1279,-2.1294,-2.1288,-2.1301,-2.1302,-2.1313,-2.1285,-2.1282,-2.1279,-2.1269,-2.1265,-2.1314,-2.1314,-2.1315,-2.1315,0,-2.0949,-2.0969,-2.0972,-2.1014,-2.1032,-2.1044,-2.1085,-2.1097,-2.1121,-2.1148,-2.1165,-2.1198,-2.1227,-2.1233,-2.1257,-2.125,-2.1256,-2.1277,-2.1301,-2.1271,-2.1262,-2.1258,-2.131,-2.1311,-2.1312,-2.1313,0,0,-2.0892,-2.0954,-2.0955,-2.0972,-2.1018,-2.1033,-2.1045,-2.1073,-2.1082,-2.111,-2.1119,-2.1148,-2.1167,-2.1185,-2.1212,-2.1213,-2.1188,-2.1233,-2.1235,-2.1222,-2.1179,-2.1162,-2.1157,-2.1205,-2.1205,-2.1204,-2.1176,0,-2.087,-2.0896,-2.0932,-2.0944,-2.0961,-2.1001,-2.1011,-2.1038,-2.1063,-2.1079,-2.1106,-2.1124,-2.1149,-2.116,-2.1163,-2.1191,-2.118,-2.1194,-2.1212,-2.1212,-2.12,-2.1153,-2.1136,-2.1108,-2.1173,-2.1172,-2.1172,0,-2.0848,-2.0873,-2.0888,-2.0928,-2.0936,-2.0945,-2.0972,-2.0988,-2.1018,-2.1036,-2.1054,-2.1083,-2.1095,-2.1117,-2.1132,-2.114,-2.1149,-2.1164,-2.1164,-2.1166,-2.1189,-2.1152,-2.11,-2.1094,-2.1167,-2.1168,-2.1168,0,-2.0802,-2.0839,-2.0852,-2.0866,-2.0915,-2.0919,-2.0939,-2.097,-2.0983,-2.1007,-2.1015,-2.1039,-2.1052,-2.1068,-2.1101,-2.1115,-2.1111,-2.1137,-2.1124,-2.1123,-2.1121,-2.1121,-2.1067,-2.113,-2.113,-2.113,-2.113,0,-2.0773,-2.0779,-2.0831,-2.0839,-2.0846,-2.0886,-2.0891,-2.0915,-2.0941,-2.0952,-2.0988,-2.0997,-2.104,-2.1054,-2.1079,-2.1086,-2.1092,-2.1105,-2.1111,-2.11,-2.1098,-2.1106,-2.1108,-2.1129,-2.1129,-2.1129,-2.113,0,-2.0722,-2.0758,-2.0774,-2.0817,-2.0828,-2.0831,-2.0867,-2.0874,-2.09,-2.0913,-2.0918,-2.0958,-2.0975,-2.1009,-2.1036,-2.1053,-2.1053,-2.1066,-2.1043,-2.1047,-2.1031,-2.1031,-2.098,-2.0974,-2.1041,-2.1041,-2.104,0,-2.0701,-2.0707,-2.075,-2.0759,-2.0778,-2.0794,-2.0807,-2.0846,-2.0858,-2.0891,-2.0893,-2.0913,-2.0931,-2.0956,-2.0986,-2.1005,-2.1017,-2.0998,-2.1021,-2.1009,-2.1014,-2.1013,-2.1012,-2.0993,-2.0992,-2.0991,-2.099,0,-2.0658,-2.0674,-2.0693,-2.0717,-2.0732,-2.0752,-2.0775,-2.078,-2.0823,-2.0834,-2.0852,-2.0866,-2.0892,-2.091,-2.0934,-2.0952,-2.0977,-2.0983,-2.098,-2.0969,-2.0954,-2.0959,-2.1027,-2.0984,-2.0984,-2.0985,-2.0985,-2.0986,-2.062,-2.0626,-2.0656,-2.0674,-2.0695,-2.0713,-2.0721,-2.0747,-2.0763,-2.0788,-2.0809,-2.0824,-2.085,-2.0884,-2.0901,-2.0911,-2.0924,-2.0921,-2.092,-2.0918,-2.0912,-2.0954,-2.0916,-2.0916,-2.0916,-2.0917,-2.0917,0,-2.0577,-2.0598,-2.0614,-2.0643,-2.0657,-2.068,-2.0704,-2.0713,-2.0726,-2.0749,-2.0765,-2.0784,-2.0801,-2.0831,-2.085,-2.0852,-2.0864,-2.0856,-2.0855,-2.0858,-2.0902,-2.0901,-2.0846,-2.0846,-2.0846,-2.0846,-2.0846,-2.0846,-2.0556,-2.0565,-2.0584,-2.0603,-2.0623,-2.0638,-2.065,-2.0666,-2.0684,-2.0703,-2.0717,-2.0737,-2.0762,-2.0782,-2.0797,-2.0806,-2.081,-2.0797,-2.0809,-2.0849,-2.0855,-2.0862,-2.0861,-2.0798,-2.0798,-2.0764,-2.0764,-2.0764]}]]